Date String (YYYY-MM-DD hh:mm:ss) UTC,Instrument flags,Ambient pressure (hPa),Sample flow (lpm),Bypass flow (lpm),Sample temperature (°C),Ambient temperature (°C),ASC tube jacket temperature (°C),LED temperature (°C),Box temperature (°C),Sample RH (%),Span deviation,Mass concentration (μg/m³),Mass concentration (μg/m³),Mass concentration (μg/m³)
DateTimeUTC,F1_M11,P_M11,Q1_M11,Q2_M11,T1_M11,T2_M11,T3_M11,T4_M11,T5_M11,U1_M11,ZSPAN_M11,X0_M11,X2_M11,X1_M11
2021-09-16 10:00:00,,0823.1,5.00,0.00,29.7,28.9,00.0,38.9,31.5,08.6,0003.0,0012.71,0007.11,0006.57
2021-09-16 10:01:00,,0823.1,4.99,0.00,29.7,28.9,00.0,38.9,31.4,08.6,0003.1,0011.90,0007.03,0006.53
2021-09-16 10:02:00,,0823.1,5.01,0.00,29.7,28.9,00.0,38.9,31.4,08.5,0003.2,0011.57,0006.97,0006.49
2021-09-16 10:03:00,,0823.1,5.00,0.00,29.8,28.9,00.0,38.9,31.5,08.5,0003.2,0011.33,0006.91,0006.43
2021-09-16 10:04:00,,0823.1,5.01,0.00,29.8,28.9,00.0,38.9,31.5,08.5,0003.1,0011.39,0006.85,0006.38
2021-09-16 10:05:00,,0823.2,5.00,0.00,29.8,28.9,00.0,38.9,31.5,08.6,0003.2,0011.63,0006.81,0006.34
2021-09-16 10:06:00,,0823.1,5.00,0.00,29.8,28.9,00.0,38.9,31.5,08.5,0003.3,0011.17,0006.75,0006.30
2021-09-16 10:07:00,,0823.1,5.00,0.00,29.8,28.9,00.0,38.9,31.5,08.4,0003.2,0011.06,0006.70,0006.26
2021-09-16 10:08:00,,0823.1,5.00,0.00,29.8,29.0,00.0,38.9,31.5,08.4,0003.4,0010.73,0006.63,0006.22
2021-09-16 10:09:00,,0823.1,5.00,0.00,29.8,28.9,00.0,38.9,31.5,08.4,0003.2,0010.60,0006.57,0006.18
2021-09-16 10:10:00,,0823.1,5.00,0.00,29.8,28.9,00.0,38.9,31.5,08.2,0003.0,0010.53,0006.51,0006.13
2021-09-16 10:11:00,,0823.1,4.99,0.00,29.8,29.0,00.0,38.9,31.5,08.1,0003.1,0010.53,0006.47,0006.10
2021-09-16 10:12:00,,0823.1,5.00,0.00,29.8,29.0,00.0,38.9,31.5,08.1,0003.0,0010.28,0006.40,0006.06
2021-09-16 10:13:00,,0823.1,5.00,0.00,29.8,29.0,00.0,38.9,31.5,08.2,0002.9,0010.26,0006.38,0006.03
2021-09-16 10:14:00,,0823.1,5.01,0.00,29.8,29.0,00.0,38.9,31.5,08.1,0002.8,0010.15,0006.35,0006.01
2021-09-16 10:15:00,,0823.1,5.01,0.00,29.8,29.0,00.0,38.9,31.5,08.0,0003.0,0009.82,0006.35,0005.98
2021-09-16 10:16:00,,0823.1,4.99,0.00,29.8,29.0,00.0,38.9,31.5,08.0,0002.8,0009.62,0006.32,0005.95
2021-09-16 10:17:00,,0823.1,5.00,0.00,29.8,29.0,00.0,38.9,31.5,07.8,0003.1,0009.69,0006.26,0005.91
2021-09-16 10:18:00,,0823.1,4.99,0.00,29.8,29.0,00.0,38.9,31.5,07.8,0003.4,0009.86,0006.23,0005.87
2021-09-16 10:19:00,,0823.1,5.00,0.00,29.8,29.0,00.0,38.9,31.5,07.6,0003.3,0009.82,0006.20,0005.82
2021-09-16 10:20:00,,0823.1,5.01,0.00,29.8,29.0,00.0,38.9,31.5,07.4,0003.1,0009.90,0006.17,0005.76
2021-09-16 10:21:00,,0823.1,4.99,0.00,29.8,29.0,00.0,38.9,31.5,07.7,0003.3,0009.90,0006.14,0005.73
2021-09-16 10:22:00,,0823.1,4.99,0.00,29.8,29.0,00.0,38.9,31.5,07.9,0003.3,0009.70,0006.11,0005.72
2021-09-16 10:23:00,,0823.1,5.00,0.00,29.8,29.0,00.0,38.9,31.5,07.9,0003.3,0009.68,0006.13,0005.69
2021-09-16 10:24:00,,0823.2,5.01,0.00,29.8,29.1,00.0,39.0,31.6,07.8,0003.2,0009.64,0006.09,0005.65
2021-09-16 10:25:00,,0823.2,5.00,0.00,29.8,29.1,00.0,39.0,31.6,07.8,0003.2,0009.57,0006.05,0005.62
2021-09-16 10:26:00,,0823.1,4.99,0.00,29.8,29.1,00.0,39.0,31.6,07.9,0003.0,0009.50,0006.00,0005.61
2021-09-16 10:27:00,,0823.2,5.00,0.00,29.8,29.1,00.0,39.0,31.6,08.0,0002.9,0009.86,0006.01,0005.60
2021-09-16 10:28:00,,0823.1,5.01,0.00,29.8,29.1,00.0,39.0,31.6,08.0,0002.6,0009.94,0006.01,0005.61
2021-09-16 10:29:00,,0823.2,5.01,0.00,29.8,29.1,00.0,39.0,31.6,08.1,0002.5,0010.24,0006.00,0005.62
2021-09-16 10:30:00,,0823.1,5.00,0.00,29.8,29.1,00.0,39.0,31.6,08.1,0002.8,0010.18,0005.97,0005.62
2021-09-16 10:31:00,,0823.2,5.00,0.00,29.8,29.1,00.0,39.0,31.6,08.1,0003.0,0010.14,0005.98,0005.65
2021-09-16 10:32:00,,0823.1,5.00,0.00,29.8,29.1,00.0,39.0,31.6,08.0,0002.9,0010.09,0005.97,0005.65
2021-09-16 10:33:00,,0823.2,5.01,0.00,29.8,29.1,00.0,39.0,31.6,08.0,0002.9,0010.14,0005.94,0005.63
2021-09-16 10:34:00,,0823.2,5.00,0.00,29.9,29.1,00.0,39.0,31.6,08.0,0002.9,0010.37,0005.89,0005.61
2021-09-16 10:35:00,,0823.2,5.00,0.00,29.9,29.1,00.0,39.0,31.6,08.0,0002.7,0010.44,0005.87,0005.60
2021-09-16 10:36:00,,0823.2,5.01,0.00,29.9,29.1,00.0,39.0,31.6,08.0,0002.9,0010.54,0005.89,0005.59
2021-09-16 10:37:00,,0823.2,5.00,0.00,29.8,29.1,00.0,39.0,31.6,07.8,0002.9,0010.61,0005.88,0005.55
2021-09-16 10:38:00,,0823.1,4.98,0.00,29.9,29.1,00.0,39.0,31.6,07.8,0003.1,0010.23,0005.83,0005.52
2021-09-16 10:39:00,,0823.2,5.00,0.00,29.9,29.1,00.0,39.0,31.6,08.0,0003.3,0009.70,0005.79,0005.47
2021-09-16 10:40:00,,0823.1,5.01,0.00,29.8,29.1,00.0,39.0,31.6,07.8,0003.1,0009.27,0005.77,0005.46
2021-09-16 10:41:00,,0823.2,4.99,0.00,29.8,29.1,00.0,39.0,31.6,07.7,0003.1,0009.41,0005.78,0005.43
2021-09-16 10:42:00,,0823.1,5.01,0.00,29.9,29.1,00.0,39.0,31.6,07.6,0003.0,0009.40,0005.77,0005.40
2021-09-16 10:43:00,,0823.1,5.00,0.00,29.9,29.1,00.0,39.0,31.6,07.4,0002.8,0009.63,0005.73,0005.37
2021-09-16 10:44:00,,0823.1,5.00,0.00,29.9,29.1,00.0,39.0,31.5,07.3,0002.8,0009.97,0005.70,0005.34
2021-09-16 10:45:00,,0823.1,5.01,0.00,29.9,29.1,00.0,39.0,31.6,07.4,0003.0,0009.58,0005.68,0005.32
2021-09-16 10:46:00,,0823.1,5.01,0.00,29.9,29.1,00.0,39.0,31.6,07.7,0003.0,0009.45,0005.67,0005.30
2021-09-16 10:47:00,,0823.2,4.99,0.00,29.9,29.1,00.0,39.0,31.6,07.8,0003.2,0009.38,0005.65,0005.28
2021-09-16 10:48:00,,0823.1,5.02,0.00,29.9,29.1,00.0,39.0,31.6,07.9,0003.3,0009.30,0005.63,0005.29
2021-09-16 10:49:00,,0823.2,4.99,0.00,29.9,29.2,00.0,39.0,31.6,08.0,0003.2,0009.20,0005.62,0005.30
2021-09-16 10:50:00,,0823.2,5.01,0.00,29.9,29.2,00.0,39.0,31.7,07.8,0003.2,0009.69,0005.66,0005.31
2021-09-16 10:51:00,,0823.2,5.01,0.00,29.9,29.2,00.0,39.0,31.6,07.7,0002.9,0009.73,0005.67,0005.30
2021-09-16 10:52:00,,0823.1,5.00,0.00,29.9,29.2,00.0,39.0,31.6,07.8,0002.8,0009.59,0005.64,0005.30
2021-09-16 10:53:00,,0823.2,4.99,0.00,29.9,29.2,00.0,39.1,31.7,07.7,0002.9,0009.49,0005.61,0005.30
2021-09-16 10:54:00,,0823.1,5.01,0.00,29.9,29.2,00.0,39.1,31.7,07.8,0002.8,0009.19,0005.63,0005.31
2021-09-16 10:55:00,,0823.2,5.00,0.00,29.9,29.2,00.0,39.1,31.6,07.8,0002.6,0008.79,0005.63,0005.32
2021-09-16 10:56:00,,0823.1,4.99,0.00,29.9,29.2,00.0,39.1,31.7,07.8,0002.7,0008.80,0005.64,0005.33
2021-09-16 10:57:00,,0823.2,4.99,0.00,29.9,29.2,00.0,39.1,31.6,07.7,0002.5,0008.80,0005.66,0005.35
2021-09-16 10:58:00,,0823.1,5.00,0.00,29.9,29.2,00.0,39.1,31.6,07.8,0002.5,0009.72,0005.65,0005.36
2021-09-16 10:59:00,,0823.1,5.01,0.00,29.9,29.2,00.0,39.1,31.6,07.9,0002.7,0010.19,0005.63,0005.34
